Location: Bothwell
(42.3833°S, 147.0000°E)
Time: 03:20:08
(UTC+11:00)

BUGSAT 1 - Pass Details

Date: 25 September 2022
Orbit: 554 x 595 km, 98.1° (Epoch: 29 November)

Event Time Altitude Azimuth Distance (km) Brightness Sun altitude
Rises 19:28:53 0° 183° (S) 2,867 ? -14.9°
Reaches altitude 10° 19:31:38 10° 202° (SSW) 1,949 ? -15.4°
Maximum altitude 19:34:30 18° 244° (WSW) 1,480 ? -15.9°
Drops below altitude 10° 19:37:19 10° 287° (WNW) 1,913 ? -16.4°
Sets 19:39:59 0° 306° (NW) 2,794 ? -16.9°
